Flag for U.S.A. Weather past 2 weeks in Wichita, Kansas, U.S.A.

Now
72 °F

Clear.


Feels Like: 70 °F
Forecast: 67 / 90 °F
Wind: 6 mph from Southeast

Location: Wichita Mid-Continent Airport

Current Time: Aug 31, 2015 at 1:47:07 AM

Latest Report: Aug 31, 2015 at 12:53 AM


Visibility: 8 mi

Pressure: 29.91 "Hg

Humidity: 87%

Dew point: 68 °F

Location of WichitaLocation

Historic Weather in Wichita — Graph

°F

Wichita temperature yesterday

Maximum temperature yesterday: 83 °F (at 5:53 PM)
Minimum temperature yesterday: 60 °F (at 3:53 AM)
Average temperature yesterday: 72 °F

Past Weeks' High & Low Weather Summary

 TemperatureHumidityPressure
High90 °F (Aug 17, 1:53 PM)97% (Aug 30, 7:53 AM)30.20 "Hg (Aug 30, 7:53 AM)
Low56 °F (Aug 20, 5:53 AM)29% (Aug 24, 2:53 PM)29.67 "Hg (Aug 18, 3:53 PM)
Average74 °F67%29.96 "Hg
* Reported Aug 16 12:53 AM — Aug 31 12:53 AM, Wichita, Weather by CustomWeather, © 2015

Note: Actual official high and low records may vary slightly from our data, if they occured in-between our weather recording intervals... More about our weather records

Advertising

Wichita weather history for previous 24 hours

 ConditionsComfort  
Time TempWeatherWind HumidityBarometerVisibility
12:53 AM
Mon, Aug 31
72 °FClear.6 mph87%29.91 "Hg8 mi
11:53 PM
Sun, Aug 30
73 °FClear.8 mph84%29.91 "Hg10 mi
10:53 PM74 °FClear.9 mph82%29.92 "Hg10 mi
9:53 PM75 °FClear.10 mph76%29.93 "Hg10 mi
8:53 PM76 °FSunny.6 mph72%29.91 "Hg10 mi
7:53 PM78 °FPassing clouds.6 mph62%29.90 "Hg10 mi
6:53 PM82 °FPassing clouds.7 mph55%29.91 "Hg10 mi
5:53 PM83 °FScattered clouds.6 mph51%29.92 "Hg10 mi
4:53 PM81 °FPassing clouds.8 mph56%29.93 "Hg10 mi
3:53 PM82 °FScattered clouds.6 mph55%29.95 "Hg10 mi
2:53 PM82 °FScattered clouds.8 mph55%29.97 "Hg10 mi
1:53 PM82 °FPartly sunny.No wind56%29.99 "Hg10 mi
12:53 PM79 °FPartly sunny.No wind60%30.00 "Hg10 mi
11:53 AM78 °FScattered clouds.6 mph69%30.03 "Hg10 mi
10:53 AM72 °FLow clouds.5 mph78%30.04 "Hg3 mi
9:53 AM68 °FFog.5 mph87%30.04 "Hg3 mi
8:53 AM64 °FFog.5 mph97%30.03 "Hg0 mi
7:53 AM63 °FFog.5 mph97%30.00 "Hg0 mi
7:01 AM63 °FFog.5 mph90%30.02 "Hg1 mi
5:53 AM61 °FPassing clouds.5 mph90%29.99 "Hg9 mi
4:53 AM61 °FClear.5 mph93%29.99 "Hg8 mi
3:53 AM60 °FFog.No wind93%30.00 "Hg6 mi
2:53 AM64 °FClear.5 mph87%29.99 "Hg9 mi
1:53 AM65 °FClear.3 mph85%30.00 "Hg10 mi
Weather by CustomWeather, © 2015

See weather overviewHow to use our weather pages